Погода в Порозово

Россия / Удмуртская Республика     57°16′36″N   53°57′21″E
темп.,
°C
ветер,
м/с
пор.,
м/с
влажн.,
%
обл.,
%
осадки,
мм/ч
давл.,
гПа
погр.,
м
25 июня, сб
сб2501:00+14ссз488217 0.0 1009141
04:00+12сз35905 0.0 100981
07:00+16сз59805 0.0 1008359
10:00+20сз68664 0.1 10071171
13:00+21сз8105711 0.2 10072007
16:00+18сз9127452 1.1 1008743
19:00+17ссз6117035 0.6 1008411
22:00+12сз368224 0.6 100987
26 июня, вс
вс2601:00+10сз410823 0.0 1011210
04:00+9сз613795 0.0 1012412
07:00+11ссз712740 0.0 10121196
10:00+14ссз8115822 0.0 10121611
13:00+16с7115197 0.0 10122191
16:00+15ссв6106496 0.0 10131645
19:00+13ссв696935 0.0 1015770
22:00+8с23800 0.0 101628
27 июня, пн
пн2701:00+7зсз22846 0.0 101612
04:00+6з11875 0.0 101611
07:00+11з357780 0.0 1015239
10:00+17зюз6859100 0.0 1012757
13:00+20зюз9116320 0.0 10091313
16:00+19сз8128558 1.4 1007850
19:00+15ссв8127698 0.2 1009948
22:00+8ссв7137624 0.2 1013715
28 июня, вт
вт2801:00+5ссз411935 0.0 1013284
04:00+4ссз411925 0.0 1014329
07:00+7с7107251 0.0 10151135
10:00+9ссз61064100 0.1 10151603
13:00+11ссз6105598 0.0 10151793
16:00+15с61049100 0.0 10132359
19:00+13с496475 0.0 1014478
22:00+8ссз35666 0.0 101563
29 июня, ср
ср2901:00+8ссз4126636 0.0 1015466
04:00+5ссз411835 0.0 1017220
07:00+10ссз59745 0.0 1017433
10:00+15ссз68583 0.0 10161314
13:00+17с684961 0.0 10161675
16:00+18с5852100 0.0 10151817
19:00+16ссз486749 0.0 1015239
22:00+10сз3766100 0.0 101593